Погода Троицко-Печерск

Хотите узнать прогноз погоды Троицко-Печерск? Тогда Вам сюда: Погода Троицко-Печерск

Поиск расширенной информации на нашем сайте:

Полезная информация:

Новости сайта



02.01.2020
Опубликован Долгосрочный прогноз погоды по городам России и ближнего зарубежья на январь 2020 года.
Карты: Прогноз на январь и февраль 2020 года, Сравнение прогнозируемой аномалии приземной температуры воздуха на январь 2020 года по разным моделям.




Погода Троицко-Печерск - сегодня

Время (UTC), дата Ветер
(°,м/с) 
Видим.   Явления Облачность Т
(°С)
Тd
(°С)
f(%) Тe
(°С)
Pmin
(гПа)
dP
(гПа)
Po
(мм)
O2
(г/м3)
Тmin Tmax R s Состояние
почвы
18 28.11.20 тихо ()   20000 м    6/0 средняя, верхняя 
[Ac trans|Ci fib]
-21.9 -24.6 79 -22  1046.4  0.8  770  339           
21 28.11.20 тихо ()   20000 м    4/0 верхняя 
[Ci fib]
-22.7 -25.2 80 -23  1047.9  1.4  771  341           
00 29.11.20 190 (Ю) 20000 м    4/0 верхняя 
[Ci fib]
-23.7 -26.6 77 -24  1048.8  0.8  772  343           
03 29.11.20 тихо ()   20000 м    4/0 верхняя 
[Ci fib]
-24.4 -27.3 77 -24  1049.4  0.6  773  344  -24.5         
06 29.11.20 180 (Ю) 20000 м    8/0 средняя, верхняя 
[Ac trans|Cs]
-22.7 -25.4 79 -23  1050.2  0.6  773  342           
09 29.11.20 160 (Ю) 20000 м    6/0 средняя, верхняя 
[Ac trans|Cs]
-20.6 -23.3 79 -21  1050.8  0.8  774  339           
12 29.11.20 тихо ()   20000 м    10/0 верхняя 
[Cs]
-22.3 -25.1 78 -22  1051  774  341           
15 29.11.20 190 (Ю) 20000 м    10/0 верхняя 
[Cs]
-22.1 -24.8 79 -22  1050.9  774  341    -20.1       
18 29.11.20 170 (Ю) 20000 м    3/0 верхняя 
[Cs]
-22.5 -25.3 78 -23  1050.4  -0.6  773  341           
21 29.11.20 170 (Ю) 20000 м    8/0 верхняя 
[Ci fib]
-21.6 -24.3 79 -22  1050.1  -0.3  773  340           
00 30.11.20 200 (Ю) 10 км  слаб. снег  10/0 средняя, верхняя 
[As op|Ci fib]
-20.5 -23.1 80 -21  1050  773  339           
03 30.11.20 190 (Ю) 10 км  слаб. снег  10/0 средняя 
[As op]
-17.6 -19.8 83 -20  1049.1  -0.7  773  334  -23.5    0.0  11  равномерный
сухой снег
100% 
06 30.11.20 190 (Ю) 10 км  слаб. снег  10/0 
[]
-14.4 -16.5 84 -17  1048.4  -0.5  772  330           
09 30.11.20 190 (Ю) 10 км  слаб. снег  10/0 средняя 
[As op]
-12.1 -14.1 85 -14  1047.4  -0.7  772  327           
12 30.11.20 180 (Ю) 10 км  слаб. снег  10/0 средняя 
[As op]
-11.9 -13.9 85 -15  1046.8  -0.6  771  326           
15 30.11.20 190 (Ю) 10 км  слаб. снег  10/0 средняя 
[As op]
-10.6 -12.3 87 -12  1046.2  -0.5  771  324    -10.6       
18 30.11.20 190 (Ю) 20000 м  {снег}  10/0 средняя 
[Ac As]
-9.1 -10.6 89 -12  1045.4  -0.7  770  322           
21 30.11.20 180 (Ю) 20000 м    10/0 средняя 
[Ac As]
-8.7 -10.2 89 -10  1044.7  -0.7  770  321           
00 01.12.20 170 (Ю) 20000 м    10/0 средняя 
[Ac As]
-8 -9.3 90 -10  1042.9  -1.7  769  320           
03 01.12.20 200 (Ю) 20000 м    10/0 средняя 
[Ac As]
-7.6 -9 90 -11  1041.3  -1.6  767  319  -10.6    0.0  11  равномерный
сухой снег
100% 
06 01.12.20 190 (Ю) 20000 м    10/4 600 м кучево-дожд., средняя 
[Cb cap|Ac As]
-7 -8.3 90 -11  1041  -0.3  767  318           
09 01.12.20 190 (Ю) 20000 м    10/8 600 м средняя 
[Sc|Ac As]
-5.8 -6.9 92 -9  1039.8  -1.1  766  316           
12 01.12.20 190 (Ю) н/о    н/о 
-6 -7.4 90 -9  1039.1  -0.7  766  316           
15 01.12.20 190 (Ю) 20000 м    3/1 300 м средняя 
[Sc|Ac trans]
-6.9 -8.5 88 -10  1038.4  -0.7  765  317    -5.4       
18 01.12.20 180 (Ю) 20000 м    4/0 средняя 
[Ac trans]
-6.8 -7.3 96 -10  1037  -1.3  764  317           
Время (UTC), дата Ветер
(°,м/с) 
Видим.   Явления Облачность Т
(°С)
Тd
(°С)
f(%) Тe
(°С)
Pmin
(гПа)
dP
(гПа)
Po
(мм)
O2
(г/м3)
Тmin Tmax R s Состояние
почвы

Для получения пояснительной информации подведите курсор к названию столбца.

ПОГОДА Троицко-Печерск - архив

Всё, что Вы хотите узнать о погоде Троицко-Печерск - удобно и подробно!

Выберите нужную дату (начиная с 1 января 2019* года) и нажмите кнопку "Найти".
Будут отображены архивные сводки погоды по пункту Троицко-Печерск, начиная с указанной даты.


Отображать данные в формате CSV (для использования в таблицах Excel)


Внимание! Наш архив погоды предназначен исключительно для личного некоммерческого использования в познавательных целях. Если Вам необходимы официальные справки о состоянии погоды (для производственных, юридических, коммерческих и т.п. целей), обращайтесь в органы Росгидромета.

*Примечание: данная дата относится к архиву по метеостанциям СССР (Россия, СНГ, Балтия).
Архив по метеостанциям Зарубежной Европы и Азии (кроме Китая) хранится 10 дней, по другим регионам земного шара (Китай, Африка, Америка, Австралия, Океания) - 1 день.

Троицко-Печерск - район местоположения метеостанции


Название, широта, долгота, высота метеостанции:
Троицко-Печерск 62.7°ш. 56.2°д. 139 м над ур. моря [Российская Федерация]

Дополнительная информация

В oтличие oт бoльшинства пoгoдных сайтoв мы публикуем пoдрoбную метеoинфoрмацию в детальнoм прoфессиoнальнoм фoрмате.

Характеристики температуры и влажнoсти вoздуха измеряются на высoте 2 м в тени вдали oт зданий и деревьев.
Скoрoсть ветра измеряется на высoте 10 м (на урoвне рoста челoвека скoрoсть ветра ниже в 1.5-2 раза). Если метеoстанция нахoдится в гoрoде или в лесу, тo скoрoсть ветра занижена на 2-4 м/с пo сравнению с oткрытым местoм. Скoрoсть ветра над акватoриями крупных рек и oзёр, а также на вершинах хoлмoв на 2-5 м/с выше, чем в oбычных услoвиях.
Атмoсфернoе давление в разных тoчках местнoсти мoжет значительнo oтличаться oт давления на метеoстанции, в зависимoсти oт услoвий рельефа (при пoдъёме на 10 м давление пoнижается примернo на 1 мм рт.ст.).